Time,TemperatureF,DewpointF,PressureIn,WindDirection,WindDirectionDegrees,WindSpeedMPH,WindSpeedGustMPH,Humidity,HourlyPrecipIn,Conditions,Clouds,dailyrainin,SoftwareType,DateUTC
2013-04-27 00:00:00,55.4,48.0,28.97,ESE,104,5.4,6.3,76,0.00,,---,0.00,VWS V14.01,2013-04-27 04:00:00,
2013-04-27 00:01:00,55.4,48.0,28.97,ESE,122,3.6,6.3,76,0.00,,---,0.00,VWS V14.01,2013-04-27 04:01:00,
2013-04-27 00:02:00,55.4,48.0,28.97,SE,125,4.0,5.4,76,0.00,,---,0.00,VWS V14.01,2013-04-27 04:02:00,
2013-04-27 00:03:00,55.4,48.0,28.97,East,96,5.4,5.8,76,0.00,,---,0.00,VWS V14.01,2013-04-27 04:03:00,
2013-04-27 00:04:00,55.4,48.0,28.97,ESE,111,4.5,5.4,76,0.00,,---,0.00,VWS V14.01,2013-04-27 04:04:00,
2013-04-27 00:05:00,55.4,48.0,28.97,ESE,110,4.5,5.8,76,0.00,,---,0.00,VWS V14.01,2013-04-27 04:05:00,
2013-04-27 00:06:00,55.4,48.0,28.97,ESE,108,4.5,6.3,76,0.00,,---,0.00,VWS V14.01,2013-04-27 04:06:00,
2013-04-27 00:07:00,55.4,47.6,28.97,ESE,104,4.9,5.8,75,0.00,,---,0.00,VWS V14.01,2013-04-27 04:07:00,
2013-04-27 00:08:00,55.4,47.6,28.97,East,94,6.3,6.3,75,0.00,,---,0.00,VWS V14.01,2013-04-27 04:08:00,
2013-04-27 00:09:00,55.4,47.6,28.97,ESE,109,6.3,6.3,75,0.00,,---,0.00,VWS V14.01,2013-04-27 04:09:00,
2013-04-27 00:10:00,55.4,47.6,28.97,ESE,122,3.1,6.9,75,0.00,,---,0.00,VWS V14.01,2013-04-27 04:10:00,
2013-04-27 00:11:00,55.4,47.6,28.97,ESE,108,3.1,4.0,75,0.00,,---,0.00,VWS V14.01,2013-04-27 04:11:00,
2013-04-27 00:12:00,55.4,47.3,28.97,ESE,118,4.0,5.8,74,0.00,,---,0.00,VWS V14.01,2013-04-27 04:12:00,
2013-04-27 00:13:00,55.4,47.3,28.97,ESE,118,3.6,4.0,74,0.00,,---,0.00,VWS V14.01,2013-04-27 04:13:00,
2013-04-27 00:14:00,55.4,47.3,28.97,ESE,118,4.0,4.5,74,0.00,,---,0.00,VWS V14.01,2013-04-27 04:14:00,
2013-04-27 00:15:00,55.4,47.3,28.97,SE,132,4.5,4.9,74,0.00,,---,0.00,VWS V14.01,2013-04-27 04:15:00,
2013-04-27 00:16:00,55.4,47.3,28.97,ESE,123,4.5,4.9,74,0.00,,---,0.00,VWS V14.01,2013-04-27 04:16:00,
2013-04-27 00:17:00,55.4,47.3,28.97,East,94,6.3,6.3,74,0.00,,---,0.00,VWS V14.01,2013-04-27 04:17:00,
2013-04-27 00:18:00,55.4,47.3,28.97,SE,126,4.5,6.3,74,0.00,,---,0.00,VWS V14.01,2013-04-27 04:18:00,
2013-04-27 00:19:00,55.4,47.3,28.97,ESE,119,5.8,6.3,74,0.00,,---,0.00,VWS V14.01,2013-04-27 04:19:00,
2013-04-27 00:20:00,55.4,47.3,28.97,ESE,110,3.6,5.8,74,0.00,,---,0.00,VWS V14.01,2013-04-27 04:20:00,
2013-04-27 00:21:00,55.4,47.3,28.97,ESE,110,4.0,4.5,74,0.00,,---,0.00,VWS V14.01,2013-04-27 04:21:00,
2013-04-27 00:22:00,55.4,46.9,28.97,ESE,110,3.1,4.5,73,0.00,,---,0.00,VWS V14.01,2013-04-27 04:22:00,
2013-04-27 00:23:00,55.6,47.1,28.97,ENE,78,4.0,5.4,73,0.00,,---,0.00,VWS V14.01,2013-04-27 04:23:00,
2013-04-27 00:24:00,55.6,47.1,28.97,ESE,107,4.5,5.4,73,0.00,,---,0.00,VWS V14.01,2013-04-27 04:24:00,
2013-04-27 00:25:00,55.6,47.4,28.97,East,98,4.5,4.9,74,0.00,,---,0.00,VWS V14.01,2013-04-27 04:25:00,
2013-04-27 00:26:00,55.6,47.4,28.97,East,95,5.8,5.8,74,0.00,,---,0.00,VWS V14.01,2013-04-27 04:26:00,
2013-04-27 00:27:00,55.6,47.4,28.97,ESE,111,3.1,5.8,74,0.00,,---,0.00,VWS V14.01,2013-04-27 04:27:00,
2013-04-27 00:28:00,55.6,47.4,28.97,ESE,111,3.1,4.5,74,0.00,,---,0.00,VWS V14.01,2013-04-27 04:28:00,
2013-04-27 00:29:00,55.6,47.4,28.97,ESE,118,2.7,4.9,74,0.00,,---,0.00,VWS V14.01,2013-04-27 04:29:00,
2013-04-27 00:30:00,55.4,47.3,28.97,ESE,119,3.1,7.8,74,0.00,,---,0.00,VWS V14.01,2013-04-27 04:30:00,
2013-04-27 00:31:00,55.4,46.9,28.97,East,96,5.4,5.4,73,0.00,,---,0.00,VWS V14.01,2013-04-27 04:31:00,
2013-04-27 00:32:00,55.4,46.9,28.97,SE,138,4.5,7.4,73,0.00,,---,0.00,VWS V14.01,2013-04-27 04:32:00,
2013-04-27 00:33:00,55.4,46.9,28.97,SE,129,5.4,5.4,73,0.00,,---,0.00,VWS V14.01,2013-04-27 04:33:00,
2013-04-27 00:34:00,55.6,47.1,28.97,SE,132,5.8,7.4,73,0.00,,---,0.00,VWS V14.01,2013-04-27 04:34:00,
2013-04-27 00:35:00,55.6,46.7,28.97,ESE,105,6.9,6.9,72,0.00,,---,0.00,VWS V14.01,2013-04-27 04:35:00,
2013-04-27 00:36:00,55.6,46.7,28.97,East,99,6.3,9.2,72,0.00,,---,0.00,VWS V14.01,2013-04-27 04:36:00,
2013-04-27 00:37:00,55.6,46.7,28.97,ESE,107,6.3,8.3,72,0.00,,---,0.00,VWS V14.01,2013-04-27 04:37:00,
2013-04-27 00:38:00,55.6,46.7,28.97,ESE,106,7.4,7.4,72,0.00,,---,0.00,VWS V14.01,2013-04-27 04:38:00,
2013-04-27 00:39:00,55.6,46.7,28.97,SE,142,4.0,9.2,72,0.00,,---,0.00,VWS V14.01,2013-04-27 04:39:00,
2013-04-27 00:40:00,55.6,46.7,28.97,ESE,106,3.6,6.3,72,0.00,,---,0.00,VWS V14.01,2013-04-27 04:40:00,
2013-04-27 00:41:00,55.6,46.3,28.97,ESE,105,5.4,6.7,71,0.00,,---,0.00,VWS V14.01,2013-04-27 04:41:00,
2013-04-27 00:42:00,55.8,46.5,28.97,SE,142,4.0,5.4,71,0.00,,---,0.00,VWS V14.01,2013-04-27 04:42:00,
2013-04-27 00:43:00,55.8,46.5,28.97,East,93,5.8,5.8,71,0.00,,---,0.00,VWS V14.01,2013-04-27 04:43:00,
2013-04-27 00:44:00,55.8,46.5,28.97,ESE,119,6.7,7.8,71,0.00,,---,0.00,VWS V14.01,2013-04-27 04:44:00,
2013-04-27 00:45:00,55.8,46.5,28.97,SSE,160,4.9,7.4,71,0.00,,---,0.00,VWS V14.01,2013-04-27 04:45:00,
2013-04-27 00:46:00,55.8,46.5,28.97,East,98,4.0,5.4,71,0.00,,---,0.00,VWS V14.01,2013-04-27 04:46:00,
2013-04-27 00:47:00,55.8,46.5,28.97,SE,140,5.8,6.9,71,0.00,,---,0.00,VWS V14.01,2013-04-27 04:47:00,
2013-04-27 00:48:00,55.8,46.5,28.97,SE,124,4.0,5.8,71,0.00,,---,0.00,VWS V14.01,2013-04-27 04:48:00,
2013-04-27 00:49:00,55.8,46.5,28.97,SSE,149,6.3,6.3,71,0.00,,---,0.00,VWS V14.01,2013-04-27 04:49:00,
2013-04-27 00:50:00,55.8,46.5,28.97,ESE,114,4.9,7.8,71,0.00,,---,0.00,VWS V14.01,2013-04-27 04:50:00,
2013-04-27 00:51:00,55.8,46.5,28.97,SSE,157,6.3,7.4,71,0.00,,---,0.00,VWS V14.01,2013-04-27 04:51:00,
2013-04-27 00:52:00,55.8,46.5,28.97,SE,131,5.8,7.8,71,0.00,,---,0.00,VWS V14.01,2013-04-27 04:52:00,
2013-04-27 00:53:00,55.8,46.5,28.97,SE,145,3.6,6.7,71,0.00,,---,0.00,VWS V14.01,2013-04-27 04:53:00,
2013-04-27 00:54:00,55.8,46.5,28.97,SE,124,3.6,4.9,71,0.00,,---,0.00,VWS V14.01,2013-04-27 04:54:00,
2013-04-27 00:55:00,55.8,46.5,28.97,SE,129,5.4,5.4,71,0.00,,---,0.00,VWS V14.01,2013-04-27 04:55:00,
2013-04-27 00:56:00,55.8,46.9,28.97,ESE,110,7.4,7.8,72,0.00,,---,0.00,VWS V14.01,2013-04-27 04:56:00,
2013-04-27 00:57:00,55.8,46.9,28.94,ESE,114,6.9,7.4,72,0.00,,---,0.00,VWS V14.01,2013-04-27 04:57:00,
2013-04-27 00:58:00,55.8,46.9,28.94,ESE,109,4.5,6.9,72,0.00,,---,0.00,VWS V14.01,2013-04-27 04:58:00,
2013-04-27 00:59:00,55.8,46.9,28.94,ESE,103,5.4,5.4,72,0.00,,---,0.00,VWS V14.01,2013-04-27 04:59:00,
2013-04-27 01:00:00,55.8,46.9,28.94,SE,126,4.0,6.3,72,0.00,,---,0.00,VWS V14.01,2013-04-27 05:00:00,
2013-04-27 01:01:00,55.8,46.9,28.94,SSE,153,5.8,6.9,72,0.00,,---,0.00,VWS V14.01,2013-04-27 05:01:00,
2013-04-27 01:02:00,55.8,46.9,28.94,ESE,119,3.1,6.7,72,0.00,,---,0.00,VWS V14.01,2013-04-27 05:02:00,
2013-04-27 01:03:00,55.8,46.9,28.94,SE,139,4.9,6.7,72,0.00,,---,0.00,VWS V14.01,2013-04-27 05:03:00,
2013-04-27 01:04:00,55.8,46.9,28.94,ESE,116,4.5,7.4,72,0.00,,---,0.00,VWS V14.01,2013-04-27 05:04:00,
2013-04-27 01:05:00,55.8,46.9,28.94,SE,135,4.0,7.4,72,0.00,,---,0.00,VWS V14.01,2013-04-27 05:05:00,
2013-04-27 01:06:00,55.8,46.9,28.94,SE,139,5.4,7.8,72,0.00,,---,0.00,VWS V14.01,2013-04-27 05:06:00,
2013-04-27 01:07:00,55.8,46.9,28.94,SE,131,8.3,9.6,72,0.00,,---,0.00,VWS V14.01,2013-04-27 05:07:00,
2013-04-27 01:08:00,55.8,46.9,28.94,SE,135,4.5,8.3,72,0.00,,---,0.00,VWS V14.01,2013-04-27 05:08:00,
2013-04-27 01:09:00,55.8,46.9,28.94,SE,145,4.0,4.9,72,0.00,,---,0.00,VWS V14.01,2013-04-27 05:09:00,
2013-04-27 01:10:00,55.8,46.9,28.94,South,181,0.0,5.4,72,0.00,,---,0.00,VWS V14.01,2013-04-27 05:10:00,
2013-04-27 01:11:00,55.8,46.9,28.94,South,178,0.0,3.6,72,0.00,,---,0.00,VWS V14.01,2013-04-27 05:11:00,
2013-04-27 01:12:00,55.8,46.9,28.94,South,178,2.7,3.1,72,0.00,,---,0.00,VWS V14.01,2013-04-27 05:12:00,
2013-04-27 01:13:00,55.8,46.9,28.94,SSE,149,3.1,3.1,72,0.00,,---,0.00,VWS V14.01,2013-04-27 05:13:00,
2013-04-27 01:14:00,55.8,46.9,28.94,SSE,148,5.8,5.8,72,0.00,,---,0.00,VWS V14.01,2013-04-27 05:14:00,
2013-04-27 01:15:00,55.8,46.9,28.94,ESE,122,5.4,6.9,72,0.00,,---,0.00,VWS V14.01,2013-04-27 05:15:00,
2013-04-27 01:16:00,55.8,47.2,28.94,SE,144,6.9,6.9,73,0.00,,---,0.00,VWS V14.01,2013-04-27 05:16:00,
2013-04-27 01:17:00,55.8,47.2,28.94,SE,144,3.6,6.9,73,0.00,,---,0.00,VWS V14.01,2013-04-27 05:17:00,
2013-04-27 01:18:00,55.8,47.2,28.94,SE,141,4.0,5.4,73,0.00,,---,0.00,VWS V14.01,2013-04-27 05:18:00,
2013-04-27 01:19:00,55.8,47.2,28.94,SE,131,5.4,5.4,73,0.00,,---,0.00,VWS V14.01,2013-04-27 05:19:00,
2013-04-27 01:20:00,55.8,47.2,28.94,SE,138,4.5,7.4,73,0.00,,---,0.00,VWS V14.01,2013-04-27 05:20:00,
2013-04-27 01:21:00,55.8,47.2,28.94,ESE,121,4.0,6.9,73,0.00,,---,0.00,VWS V14.01,2013-04-27 05:21:00,
2013-04-27 01:22:00,55.8,47.2,28.94,South,172,3.6,4.9,73,0.00,,---,0.00,VWS V14.01,2013-04-27 05:22:00,
2013-04-27 01:23:00,55.8,47.2,28.94,East,97,3.6,4.9,73,0.00,,---,0.00,VWS V14.01,2013-04-27 05:23:00,
2013-04-27 01:24:00,55.8,47.2,28.94,SE,128,4.0,5.4,73,0.00,,---,0.00,VWS V14.01,2013-04-27 05:24:00,
2013-04-27 01:25:00,45.5,25.9,29.26,SSE,158,0.0,0.0,46,0.00,,---,0.00,VWS V14.01,2013-04-27 05:25:00,
2013-04-27 01:26:00,55.8,47.2,28.94,ESE,104,4.5,5.4,73,0.00,,---,0.00,VWS V14.01,2013-04-27 05:26:00,
2013-04-27 01:27:00,55.8,47.2,28.94,SE,127,5.8,6.3,73,0.00,,---,0.00,VWS V14.01,2013-04-27 05:27:00,
2013-04-27 01:28:00,55.8,47.6,28.94,ESE,114,3.6,5.8,74,0.00,,---,0.00,VWS V14.01,2013-04-27 05:28:00,
2013-04-27 01:29:00,55.8,47.6,28.94,SSE,164,4.0,7.4,74,0.00,,---,0.00,VWS V14.01,2013-04-27 05:29:00,
2013-04-27 01:30:00,45.3,25.8,29.26,SSE,158,0.0,0.0,46,0.00,,---,0.00,VWS V14.01,2013-04-27 05:30:00,
2013-04-27 01:32:00,55.8,47.6,28.94,East,99,3.6,5.8,74,0.00,,---,0.00,VWS V14.01,2013-04-27 05:32:00,
2013-04-27 01:33:00,55.6,47.4,28.94,ESE,121,3.1,4.0,74,0.00,,---,0.00,VWS V14.01,2013-04-27 05:33:00,
2013-04-27 01:35:00,45.0,24.9,29.26,SSE,158,0.0,0.0,45,0.00,,---,0.00,VWS V14.01,2013-04-27 05:35:00,
2013-04-27 01:36:00,55.6,47.4,28.94,SSE,147,5.4,7.4,74,0.00,,---,0.00,VWS V14.01,2013-04-27 05:36:00,
2013-04-27 01:38:00,55.6,47.4,28.94,SE,134,9.2,9.2,74,0.00,,---,0.00,VWS V14.01,2013-04-27 05:38:00,
2013-04-27 01:39:00,55.6,47.4,28.94,ESE,123,4.0,9.2,74,0.00,,---,0.00,VWS V14.01,2013-04-27 05:39:00,
2013-04-27 01:40:00,55.6,47.4,28.94,ESE,118,3.1,4.5,74,0.00,,---,0.00,VWS V14.01,2013-04-27 05:40:00,
2013-04-27 01:41:00,44.4,24.4,29.26,SSE,158,0.0,0.0,45,0.00,,---,0.00,VWS V14.01,2013-04-27 05:41:00,
2013-04-27 01:42:00,55.6,47.4,28.94,SE,125,4.9,6.3,74,0.00,,---,0.00,VWS V14.01,2013-04-27 05:42:00,
2013-04-27 01:43:00,55.6,47.4,28.94,East,99,4.0,5.8,74,0.00,,---,0.00,VWS V14.01,2013-04-27 05:43:00,
2013-04-27 01:48:00,44.1,24.1,29.26,SSE,158,0.0,0.0,45,0.00,,---,0.00,VWS V14.01,2013-04-27 05:48:00,
2013-04-27 01:54:00,44.1,24.6,29.26,SSE,158,0.0,0.0,46,0.00,,---,0.00,VWS V14.01,2013-04-27 05:54:00,
2013-04-27 01:56:00,55.6,47.8,28.94,SE,136,4.5,7.8,75,0.00,,---,0.00,VWS V14.01,2013-04-27 05:56:00,
2013-04-27 01:59:00,43.9,25.0,29.26,SSE,158,0.0,0.0,47,0.00,,---,0.00,VWS V14.01,2013-04-27 05:59:00,
2013-04-27 02:05:00,44.1,25.6,29.26,SSE,158,0.0,0.0,48,0.00,,---,0.00,VWS V14.01,2013-04-27 06:05:00,
2013-04-27 02:10:00,43.9,25.5,29.26,SSE,158,0.0,0.0,48,0.00,,---,0.00,VWS V14.01,2013-04-27 06:10:00,
2013-04-27 02:15:00,43.7,25.8,29.26,SSE,158,0.0,0.0,49,0.00,,---,0.00,VWS V14.01,2013-04-27 06:15:00,
2013-04-27 02:20:00,43.5,25.6,29.26,SSE,158,0.0,0.0,49,0.00,,---,0.00,VWS V14.01,2013-04-27 06:20:00,
2013-04-27 02:25:00,43.3,25.5,29.26,SSE,158,0.0,0.0,49,0.00,,---,0.00,VWS V14.01,2013-04-27 06:25:00,
2013-04-27 02:30:00,43.0,25.1,29.26,SSE,158,0.0,0.0,49,0.00,,---,0.00,VWS V14.01,2013-04-27 06:30:00,
2013-04-27 02:35:00,42.8,25.0,29.26,SSE,158,0.0,0.0,49,0.00,,---,0.00,VWS V14.01,2013-04-27 06:35:00,
2013-04-27 02:40:00,42.8,25.0,29.26,SSE,158,0.0,0.0,49,0.00,,---,0.00,VWS V14.01,2013-04-27 06:40:00,
2013-04-27 02:45:00,42.6,24.8,29.26,SSE,158,0.0,0.0,49,0.00,,---,0.00,VWS V14.01,2013-04-27 06:45:00,
2013-04-27 02:50:00,42.6,25.3,29.26,SSE,158,0.0,0.0,50,0.00,,---,0.00,VWS V14.01,2013-04-27 06:50:00,
2013-04-27 02:55:00,42.3,25.0,29.26,SSE,158,0.0,0.0,50,0.00,,---,0.00,VWS V14.01,2013-04-27 06:55:00,
2013-04-27 03:00:00,42.1,24.8,29.23,SSE,158,0.0,0.0,50,0.00,,---,0.00,VWS V14.01,2013-04-27 07:00:00,
2013-04-27 03:05:00,41.9,24.6,29.23,SSE,158,0.0,0.0,50,0.00,,---,0.00,VWS V14.01,2013-04-27 07:05:00,
2013-04-27 03:10:00,41.5,24.8,29.23,SSE,159,0.0,0.0,51,0.00,,---,0.00,VWS V14.01,2013-04-27 07:10:00,
2013-04-27 03:15:00,41.5,24.8,29.23,SSE,158,0.0,0.0,51,0.00,,---,0.00,VWS V14.01,2013-04-27 07:15:00,
2013-04-27 03:20:00,41.5,25.7,29.23,SSE,158,0.0,0.0,53,0.00,,---,0.00,VWS V14.01,2013-04-27 07:20:00,
2013-04-27 03:25:00,41.4,26.0,29.23,SSE,159,0.0,0.0,54,0.00,,---,0.00,VWS V14.01,2013-04-27 07:25:00,
2013-04-27 03:30:00,41.2,25.8,29.23,SSE,158,0.0,0.0,54,0.00,,---,0.00,VWS V14.01,2013-04-27 07:30:00,
2013-04-27 03:35:00,41.2,25.8,29.23,SSE,158,0.0,0.0,54,0.00,,---,0.00,VWS V14.01,2013-04-27 07:35:00,
2013-04-27 03:40:00,41.0,25.6,29.23,SSE,159,0.0,0.0,54,0.00,,---,0.00,VWS V14.01,2013-04-27 07:40:00,
2013-04-27 03:45:00,40.8,25.5,29.23,SSE,158,0.0,0.0,54,0.00,,---,0.00,VWS V14.01,2013-04-27 07:45:00,
2013-04-27 03:50:00,40.6,25.8,29.23,SSE,158,0.0,0.0,55,0.00,,---,0.00,VWS V14.01,2013-04-27 07:50:00,
2013-04-27 03:55:00,40.5,25.6,29.23,SSE,158,0.0,0.0,55,0.00,,---,0.00,VWS V14.01,2013-04-27 07:55:00,
2013-04-27 04:00:00,40.3,25.4,29.23,SSE,158,0.0,0.0,55,0.00,,---,0.00,VWS V14.01,2013-04-27 08:00:00,
2013-04-27 04:05:00,40.1,25.7,29.23,SSE,158,0.0,0.0,56,0.00,,---,0.00,VWS V14.01,2013-04-27 08:05:00,
2013-04-27 04:10:00,39.9,25.5,29.23,SSE,158,0.0,0.0,56,0.00,,---,0.00,VWS V14.01,2013-04-27 08:10:00,
2013-04-27 04:15:00,39.7,25.8,29.23,SSE,158,0.0,0.0,57,0.00,,---,0.00,VWS V14.01,2013-04-27 08:15:00,
2013-04-27 04:20:00,39.9,25.9,29.23,SSE,158,0.0,0.0,57,0.00,,---,0.00,VWS V14.01,2013-04-27 08:20:00,
2013-04-27 04:25:00,39.7,25.8,29.23,SSE,158,0.0,0.0,57,0.00,,---,0.00,VWS V14.01,2013-04-27 08:25:00,
2013-04-27 04:30:00,39.9,26.4,29.23,SSE,158,0.0,0.0,58,0.00,,---,0.00,VWS V14.01,2013-04-27 08:30:00,
2013-04-27 04:35:00,40.1,26.9,29.23,SSE,158,0.0,0.0,59,0.00,,---,0.00,VWS V14.01,2013-04-27 08:35:00,
2013-04-27 04:40:00,40.3,27.5,29.23,SSE,158,0.0,0.0,60,0.00,,---,0.00,VWS V14.01,2013-04-27 08:40:00,
2013-04-27 04:45:00,40.6,28.6,29.23,SSE,159,0.0,0.0,62,0.00,,---,0.00,VWS V14.01,2013-04-27 08:45:00,
2013-04-27 04:50:00,40.8,28.8,29.23,SSE,158,0.0,0.0,62,0.00,,---,0.00,VWS V14.01,2013-04-27 08:50:00,
2013-04-27 04:55:00,41.0,28.2,29.23,SSE,158,0.0,0.0,60,0.00,,---,0.00,VWS V14.01,2013-04-27 08:55:00,
2013-04-27 05:00:00,41.0,27.8,29.23,SSE,158,0.0,0.0,59,0.00,,---,0.00,VWS V14.01,2013-04-27 09:00:00,
2013-04-27 05:05:00,41.0,27.4,29.23,SSE,158,0.0,0.0,58,0.00,,---,0.00,VWS V14.01,2013-04-27 09:05:00,
2013-04-27 05:10:00,41.0,27.0,29.23,SSE,158,0.0,0.0,57,0.00,,---,0.00,VWS V14.01,2013-04-27 09:10:00,
2013-04-27 05:15:00,41.0,27.0,29.23,SSE,158,0.0,0.0,57,0.00,,---,0.00,VWS V14.01,2013-04-27 09:15:00,
2013-04-27 05:20:00,40.6,26.2,29.23,SSE,158,0.0,0.0,56,0.00,,---,0.00,VWS V14.01,2013-04-27 09:20:00,
2013-04-27 05:25:00,40.6,26.2,29.23,SSE,158,0.0,0.0,56,0.00,,---,0.00,VWS V14.01,2013-04-27 09:25:00,
2013-04-27 05:30:00,40.5,25.6,29.23,SSE,158,0.0,0.0,55,0.00,,---,0.00,VWS V14.01,2013-04-27 09:30:00,
2013-04-27 05:35:00,40.3,25.4,29.23,SSE,158,0.0,0.0,55,0.00,,---,0.00,VWS V14.01,2013-04-27 09:35:00,
2013-04-27 05:40:00,40.1,25.7,29.23,SSE,158,0.0,0.0,56,0.00,,---,0.00,VWS V14.01,2013-04-27 09:40:00,
2013-04-27 05:45:00,39.9,25.1,29.23,SSE,158,0.0,0.0,55,0.00,,---,0.00,VWS V14.01,2013-04-27 09:45:00,
2013-04-27 05:50:00,40.1,25.7,29.23,SSE,158,0.0,0.0,56,0.00,,---,0.00,VWS V14.01,2013-04-27 09:50:00,
2013-04-27 05:55:00,40.1,26.1,29.23,SSE,158,0.0,0.0,57,0.00,,---,0.00,VWS V14.01,2013-04-27 09:55:00,
2013-04-27 06:00:00,40.1,25.7,29.23,SSE,158,0.0,0.0,56,0.00,,---,0.00,VWS V14.01,2013-04-27 10:00:00,
2013-04-27 06:05:00,39.9,25.9,29.23,SSE,158,0.0,0.0,57,0.00,,---,0.00,VWS V14.01,2013-04-27 10:05:00,
2013-04-27 06:10:00,39.9,25.9,29.23,SSE,158,0.0,0.0,57,0.00,,---,0.00,VWS V14.01,2013-04-27 10:10:00,
2013-04-27 06:15:00,39.9,25.9,29.23,SSE,158,0.0,0.0,57,0.00,,---,0.00,VWS V14.01,2013-04-27 10:15:00,
2013-04-27 06:20:00,39.9,25.9,29.23,SSE,158,0.0,0.0,57,0.00,,---,0.00,VWS V14.01,2013-04-27 10:20:00,
2013-04-27 06:25:00,39.7,25.8,29.23,SSE,158,0.0,0.0,57,0.00,,---,0.00,VWS V14.01,2013-04-27 10:25:00,
2013-04-27 06:30:00,39.9,26.4,29.23,SSE,158,0.0,0.0,58,0.00,,---,0.00,VWS V14.01,2013-04-27 10:30:00,
2013-04-27 06:35:00,39.9,26.8,29.23,SSE,158,0.0,0.0,59,0.00,,---,0.00,VWS V14.01,2013-04-27 10:35:00,
2013-04-27 06:40:00,39.9,26.8,29.23,SSE,158,0.0,0.0,59,0.00,,---,0.00,VWS V14.01,2013-04-27 10:40:00,
2013-04-27 06:45:00,39.7,26.6,29.23,SSE,158,0.0,0.0,59,0.00,,---,0.00,VWS V14.01,2013-04-27 10:45:00,
2013-04-27 06:50:00,39.7,26.6,29.23,SSE,158,0.0,0.0,59,0.00,,---,0.00,VWS V14.01,2013-04-27 10:50:00,
2013-04-27 06:55:00,39.9,26.8,29.23,SSE,158,0.0,0.0,59,0.00,,---,0.00,VWS V14.01,2013-04-27 10:55:00,
2013-04-27 07:00:00,40.1,26.5,29.23,SSE,158,0.0,0.0,58,0.00,,---,0.00,VWS V14.01,2013-04-27 11:00:00,
2013-04-27 07:05:00,40.5,26.9,29.23,SSE,158,0.0,0.0,58,0.00,,---,0.00,VWS V14.01,2013-04-27 11:05:00,
2013-04-27 07:10:00,40.6,27.0,29.23,SSE,158,0.0,0.0,58,0.00,,---,0.00,VWS V14.01,2013-04-27 11:10:00,
2013-04-27 07:15:00,41.2,27.5,29.23,SSE,158,0.0,0.0,58,0.00,,---,0.00,VWS V14.01,2013-04-27 11:15:00,
2013-04-27 07:20:00,41.7,27.6,29.23,SSE,158,0.0,0.0,57,0.00,,---,0.00,VWS V14.01,2013-04-27 11:20:00,
2013-04-27 07:25:00,42.3,28.1,29.23,SSE,158,0.0,0.0,57,0.00,,---,0.00,VWS V14.01,2013-04-27 11:25:00,
2013-04-27 07:30:00,43.0,28.4,29.23,SSE,158,0.0,0.0,56,0.00,,---,0.00,VWS V14.01,2013-04-27 11:30:00,
2013-04-27 07:35:00,43.5,28.4,29.23,SSE,158,0.0,0.0,55,0.00,,---,0.00,VWS V14.01,2013-04-27 11:35:00,
2013-04-27 07:40:00,44.2,27.7,29.23,SSE,158,0.0,0.0,52,0.00,,---,0.00,VWS V14.01,2013-04-27 11:40:00,
2013-04-27 07:45:00,45.1,28.1,29.23,SSE,158,0.0,0.0,51,0.00,,---,0.00,VWS V14.01,2013-04-27 11:45:00,
2013-04-27 07:50:00,46.4,28.3,29.23,SSE,158,0.0,2.7,49,0.00,,---,0.00,VWS V14.01,2013-04-27 11:50:00,
2013-04-27 07:55:00,47.3,26.5,29.23,SSE,158,0.0,0.0,44,0.00,,---,0.00,VWS V14.01,2013-04-27 11:55:00,
2013-04-27 08:00:00,48.0,24.9,29.23,SSE,158,0.0,0.0,40,0.00,,---,0.00,VWS V14.01,2013-04-27 12:00:00,
2013-04-27 08:05:00,49.3,24.1,29.23,SSE,159,0.0,0.0,37,0.00,,---,0.00,VWS V14.01,2013-04-27 12:05:00,
2013-04-27 08:10:00,52.5,25.7,29.23,ESE,110,2.7,4.0,35,0.00,,---,0.00,VWS V14.01,2013-04-27 12:10:00,
2013-04-27 08:15:00,57.0,24.3,29.23,ESE,110,0.0,4.0,28,0.00,,---,0.00,VWS V14.01,2013-04-27 12:15:00,
2013-04-27 08:20:00,58.5,21.8,29.23,SE,141,0.0,5.4,24,0.00,,---,0.00,VWS V14.01,2013-04-27 12:20:00,
2013-04-27 08:25:00,56.7,18.3,29.23,SE,130,2.7,5.4,22,0.00,,---,0.00,VWS V14.01,2013-04-27 12:25:00,
2013-04-27 08:30:00,54.1,14.0,29.23,SE,126,3.6,5.4,20,0.00,,---,0.00,VWS V14.01,2013-04-27 12:30:00,
2013-04-27 08:35:00,53.2,18.3,29.23,SE,140,4.0,4.9,25,0.00,,---,0.00,VWS V14.01,2013-04-27 12:35:00,
2013-04-27 08:40:00,53.4,19.4,29.23,ESE,118,4.9,5.4,26,0.00,,---,0.00,VWS V14.01,2013-04-27 12:40:00,
2013-04-27 08:45:00,54.3,20.2,29.23,ESE,119,4.0,6.3,26,0.00,,---,0.00,VWS V14.01,2013-04-27 12:45:00,
2013-04-27 08:50:00,54.5,19.4,29.23,SE,135,7.8,7.8,25,0.00,,---,0.00,VWS V14.01,2013-04-27 12:50:00,
2013-04-27 08:55:00,54.7,16.6,29.23,SE,145,6.7,7.4,22,0.00,,---,0.00,VWS V14.01,2013-04-27 12:55:00,
2013-04-27 09:00:00,55.0,16.9,29.23,SE,136,6.3,6.3,22,0.00,,---,0.00,VWS V14.01,2013-04-27 13:00:00,
2013-04-27 09:05:00,55.6,15.2,29.23,SE,136,3.6,4.5,20,0.00,,---,0.00,VWS V14.01,2013-04-27 13:05:00,
2013-04-27 09:10:00,56.1,15.6,29.23,South,179,4.9,6.7,20,0.00,,---,0.00,VWS V14.01,2013-04-27 13:10:00,
2013-04-27 09:15:00,56.7,14.9,29.23,SSE,156,4.0,6.9,19,0.00,,---,0.00,VWS V14.01,2013-04-27 13:15:00,
2013-04-27 09:20:00,56.8,15.0,29.23,East,99,4.5,5.4,19,0.00,,---,0.00,VWS V14.01,2013-04-27 13:20:00,
2013-04-27 09:25:00,57.2,15.3,29.23,East,85,4.0,4.5,19,0.00,,---,0.00,VWS V14.01,2013-04-27 13:25:00,
2013-04-27 09:30:00,57.7,15.8,29.23,SE,139,4.0,5.8,19,0.00,,---,0.00,VWS V14.01,2013-04-27 13:30:00,
2013-04-27 09:35:00,58.6,16.5,29.23,SE,131,3.6,4.5,19,0.00,,---,0.00,VWS V14.01,2013-04-27 13:35:00,
2013-04-27 09:40:00,59.7,17.4,29.23,ESE,102,3.6,7.8,19,0.00,,---,0.00,VWS V14.01,2013-04-27 13:40:00,
2013-04-27 09:48:00,59.9,17.6,29.23,SE,135,5.8,5.8,19,0.00,,---,0.00,VWS V14.01,2013-04-27 13:48:00,
2013-04-27 09:53:00,59.9,17.6,29.23,SE,132,4.5,6.7,19,0.00,,---,0.00,VWS V14.01,2013-04-27 13:53:00,
2013-04-27 09:58:00,60.8,18.3,29.23,SE,134,7.4,7.4,19,0.00,,---,0.00,VWS V14.01,2013-04-27 13:58:00,
2013-04-27 10:03:00,60.4,18.0,29.21,ESE,114,3.6,6.9,19,0.00,,---,0.00,VWS V14.01,2013-04-27 14:03:00,
2013-04-27 10:08:00,61.5,18.9,29.21,SE,139,4.5,6.3,19,0.00,,---,0.00,VWS V14.01,2013-04-27 14:08:00,
2013-04-27 10:13:00,61.7,17.8,29.21,SE,143,5.4,7.8,18,0.00,,---,0.00,VWS V14.01,2013-04-27 14:13:00,
2013-04-27 10:18:00,61.5,18.9,29.21,East,88,7.4,7.4,19,0.00,,---,0.00,VWS V14.01,2013-04-27 14:18:00,
2013-04-27 10:23:00,62.6,18.5,29.21,SSE,151,7.8,7.8,18,0.00,,---,0.00,VWS V14.01,2013-04-27 14:23:00,
2013-04-27 10:28:00,63.9,19.6,29.21,ESE,106,8.7,9.6,18,0.00,,---,0.00,VWS V14.01,2013-04-27 14:28:00,
2013-04-27 10:33:00,63.5,19.3,29.21,East,99,5.8,9.6,18,0.00,,---,0.00,VWS V14.01,2013-04-27 14:33:00,
2013-04-27 10:38:00,63.9,19.6,29.21,SSE,158,5.4,8.7,18,0.00,,---,0.00,VWS V14.01,2013-04-27 14:38:00,
2013-04-27 10:43:00,64.6,20.1,29.21,SSE,167,4.0,5.4,18,0.00,,---,0.00,VWS V14.01,2013-04-27 14:43:00,
2013-04-27 10:48:00,65.3,16.5,29.21,SSE,164,5.4,8.7,15,0.00,,---,0.00,VWS V14.01,2013-04-27 14:48:00,
2013-04-27 10:53:00,64.6,15.9,29.21,SSE,164,6.9,11.2,15,0.00,,---,0.00,VWS V14.01,2013-04-27 14:53:00,
2013-04-27 10:58:00,65.1,16.4,29.21,ESE,115,7.8,7.8,15,0.00,,---,0.00,VWS V14.01,2013-04-27 14:58:00,
2013-04-27 11:03:00,66.0,17.1,29.21,South,183,6.7,7.8,15,0.00,,---,0.00,VWS V14.01,2013-04-27 15:03:00,
2013-04-27 11:08:00,66.6,17.5,29.21,SE,143,5.8,6.9,15,0.00,,---,0.00,VWS V14.01,2013-04-27 15:08:00,
2013-04-27 11:13:00,67.1,17.9,29.21,SSE,148,6.9,6.9,15,0.00,,---,0.00,VWS V14.01,2013-04-27 15:13:00,
2013-04-27 11:18:00,66.7,17.6,29.21,SSE,148,8.7,8.7,15,0.00,,---,0.00,VWS V14.01,2013-04-27 15:18:00,
2013-04-27 11:23:00,66.7,17.6,29.21,ESE,121,4.5,7.8,15,0.00,,---,0.00,VWS V14.01,2013-04-27 15:23:00,
2013-04-27 11:28:00,66.7,17.6,29.21,SE,127,3.6,6.7,15,0.00,,---,0.00,VWS V14.01,2013-04-27 15:28:00,
2013-04-27 11:33:00,66.9,17.8,29.21,SE,137,7.8,11.6,15,0.00,,---,0.00,VWS V14.01,2013-04-27 15:33:00,
2013-04-27 11:38:00,67.1,17.9,29.21,SE,136,4.0,10.5,15,0.00,,---,0.00,VWS V14.01,2013-04-27 15:38:00,
2013-04-27 11:43:00,67.6,18.4,29.21,SE,132,6.7,6.9,15,0.00,,---,0.00,VWS V14.01,2013-04-27 15:43:00,
2013-04-27 11:48:00,68.2,18.8,29.18,SE,144,7.4,7.4,15,0.00,,---,0.00,VWS V14.01,2013-04-27 15:48:00,
2013-04-27 11:53:00,67.5,18.2,29.18,ESE,118,6.9,9.2,15,0.00,,---,0.00,VWS V14.01,2013-04-27 15:53:00,
2013-04-27 11:58:00,68.0,18.7,29.18,South,177,3.6,7.4,15,0.00,,---,0.00,VWS V14.01,2013-04-27 15:58:00,
2013-04-27 12:03:00,67.6,18.4,29.18,SE,124,6.7,10.1,15,0.00,,---,0.00,VWS V14.01,2013-04-27 16:03:00,
2013-04-27 12:04:00,59.0,57.6,28.82,South,188,0.0,6.7,95,0.00,,---,0.43,VWS V14.01,2013-04-27 16:04:00,
2013-04-27 12:08:00,59.0,57.6,28.82,South,180,0.0,3.1,95,0.00,,---,0.43,VWS V14.01,2013-04-27 16:08:00,
2013-04-27 12:09:00,68.7,19.2,29.18,ESE,107,8.7,8.7,15,0.00,,---,0.00,VWS V14.01,2013-04-27 16:09:00,
2013-04-27 12:10:00,59.0,57.3,28.82,SSE,149,4.9,5.8,94,0.00,,---,0.43,VWS V14.01,2013-04-27 16:10:00,
2013-04-27 12:14:00,70.9,19.4,29.18,SSE,167,5.8,6.7,14,0.00,,---,0.00,VWS V14.01,2013-04-27 16:14:00,
2013-04-27 12:19:00,70.2,18.8,29.18,SSE,152,4.0,5.8,14,0.00,,---,0.00,VWS V14.01,2013-04-27 16:19:00,
2013-04-27 12:22:00,58.6,56.6,28.82,SE,135,0.0,4.5,93,0.00,,---,0.43,VWS V14.01,2013-04-27 16:22:00,
2013-04-27 12:23:00,58.8,56.8,28.82,SSW,212,3.6,4.9,93,0.00,,---,0.43,VWS V14.01,2013-04-27 16:23:00,
2013-04-27 12:24:00,69.3,18.1,29.18,SW,217,6.3,10.1,14,0.00,,---,0.00,VWS V14.01,2013-04-27 16:24:00,
2013-04-27 12:26:00,59.0,57.0,28.82,SW,222,4.5,4.5,93,0.00,,---,0.43,VWS V14.01,2013-04-27 16:26:00,
2013-04-27 12:29:00,68.0,18.7,29.18,SE,135,6.9,7.4,15,0.00,,---,0.00,VWS V14.01,2013-04-27 16:29:00,
2013-04-27 12:31:00,59.0,57.0,28.82,SSE,164,3.1,6.3,93,0.00,,---,0.43,VWS V14.01,2013-04-27 16:31:00,
2013-04-27 12:32:00,59.0,57.0,28.82,SSE,165,0.0,3.1,93,0.00,,---,0.43,VWS V14.01,2013-04-27 16:32:00,
2013-04-27 12:33:00,59.0,57.0,28.82,South,172,0.0,2.7,93,0.00,,---,0.43,VWS V14.01,2013-04-27 16:33:00,
2013-04-27 12:34:00,68.4,19.0,29.18,SW,214,6.9,7.4,15,0.00,,---,0.00,VWS V14.01,2013-04-27 16:34:00,
2013-04-27 12:35:00,59.2,56.9,28.82,WSW,244,3.1,4.0,92,0.00,,---,0.43,VWS V14.01,2013-04-27 16:35:00,
2013-04-27 12:37:00,59.2,56.9,28.82,South,173,0.0,2.7,92,0.00,,---,0.43,VWS V14.01,2013-04-27 16:37:00,
2013-04-27 12:38:00,59.4,57.0,28.82,South,171,4.9,4.9,92,0.00,,---,0.43,VWS V14.01,2013-04-27 16:38:00,
2013-04-27 12:39:00,69.8,18.5,29.18,SE,132,7.8,8.3,14,0.00,,---,0.00,VWS V14.01,2013-04-27 16:39:00,
2013-04-27 12:44:00,69.8,18.5,29.18,SE,126,8.7,11.0,14,0.00,,---,0.00,VWS V14.01,2013-04-27 16:44:00,
2013-04-27 12:48:00,59.4,57.0,28.82,SSE,152,0.0,4.9,92,0.00,,---,0.43,VWS V14.01,2013-04-27 16:48:00,
2013-04-27 12:49:00,68.9,17.8,29.18,ESE,116,9.2,9.2,14,0.00,,---,0.00,VWS V14.01,2013-04-27 16:49:00,
2013-04-27 12:51:00,59.5,57.2,28.82,SW,222,4.5,4.5,92,0.00,,---,0.43,VWS V14.01,2013-04-27 16:51:00,
2013-04-27 12:52:00,59.7,57.4,28.82,SSE,168,0.0,4.9,92,0.00,,---,0.43,VWS V14.01,2013-04-27 16:52:00,
2013-04-27 12:53:00,59.7,57.4,28.82,WSW,242,0.0,3.6,92,0.00,,---,0.43,VWS V14.01,2013-04-27 16:53:00,
2013-04-27 12:54:00,67.5,18.2,29.18,ESE,112,6.3,10.5,15,0.00,,---,0.00,VWS V14.01,2013-04-27 16:54:00,
2013-04-27 12:59:00,67.3,18.1,29.18,South,175,6.9,9.6,15,0.00,,---,0.00,VWS V14.01,2013-04-27 16:59:00,
2013-04-27 13:02:00,60.3,57.6,28.79,SW,226,3.6,4.9,91,0.00,,---,0.43,VWS V14.01,2013-04-27 17:02:00,
2013-04-27 13:04:00,69.4,18.2,29.18,East,84,8.7,11.0,14,0.00,,---,0.00,VWS V14.01,2013-04-27 17:04:00,
2013-04-27 13:06:00,60.6,58.0,28.79,SE,139,0.0,3.6,91,0.00,,---,0.43,VWS V14.01,2013-04-27 17:06:00,
2013-04-27 13:09:00,70.0,18.6,29.18,South,190,7.8,9.6,14,0.00,,---,0.00,VWS V14.01,2013-04-27 17:09:00,
2013-04-27 13:14:00,69.6,18.4,29.18,SE,130,5.8,9.6,14,0.00,,---,0.00,VWS V14.01,2013-04-27 17:14:00,
2013-04-27 13:17:00,60.6,57.0,28.79,South,189,0.0,3.1,88,0.00,,---,0.43,VWS V14.01,2013-04-27 17:17:00,
2013-04-27 13:19:00,68.7,19.2,29.18,SE,131,6.9,10.1,15,0.00,,---,0.00,VWS V14.01,2013-04-27 17:19:00,
2013-04-27 13:24:00,68.0,18.7,29.18,South,175,5.4,12.1,15,0.00,,---,0.00,VWS V14.01,2013-04-27 17:24:00,
2013-04-27 13:29:00,69.6,18.4,29.18,SSE,154,13.4,13.4,14,0.00,,---,0.00,VWS V14.01,2013-04-27 17:29:00,
2013-04-27 13:34:00,70.0,18.6,29.18,ESE,106,11.0,11.0,14,0.00,,---,0.00,VWS V14.01,2013-04-27 17:34:00,
2013-04-27 13:39:00,70.2,18.8,29.18,ESE,111,7.8,10.5,14,0.00,,---,0.00,VWS V14.01,2013-04-27 17:39:00,
2013-04-27 13:44:00,70.3,18.9,29.15,SSE,154,9.2,11.2,14,0.00,,---,0.00,VWS V14.01,2013-04-27 17:44:00,
2013-04-27 13:49:00,71.4,19.8,29.15,South,178,7.8,7.8,14,0.00,,---,0.00,VWS V14.01,2013-04-27 17:49:00,
2013-04-27 13:54:00,71.1,19.5,29.15,ESE,117,12.5,12.5,14,0.00,,---,0.00,VWS V14.01,2013-04-27 17:54:00,
2013-04-27 13:59:00,71.2,19.6,29.15,SSW,206,5.8,8.7,14,0.00,,---,0.00,VWS V14.01,2013-04-27 17:59:00,
2013-04-27 14:04:00,70.7,19.2,29.15,SSW,213,6.3,14.3,14,0.00,,---,0.00,VWS V14.01,2013-04-27 18:04:00,
2013-04-27 14:09:00,70.7,19.2,29.15,ESE,121,6.3,10.1,14,0.00,,---,0.00,VWS V14.01,2013-04-27 18:09:00,
2013-04-27 14:14:00,72.5,18.9,29.15,SE,125,8.7,8.7,13,0.00,,---,0.00,VWS V14.01,2013-04-27 18:14:00,
2013-04-27 14:19:00,72.7,19.0,29.15,SE,140,10.1,10.1,13,0.00,,---,0.00,VWS V14.01,2013-04-27 18:19:00,
2013-04-27 14:24:00,72.5,20.6,29.15,SE,138,7.4,10.1,14,0.00,,---,0.00,VWS V14.01,2013-04-27 18:24:00,
2013-04-27 14:29:00,73.4,19.6,29.12,South,173,6.3,6.3,13,0.00,,---,0.00,VWS V14.01,2013-04-27 18:29:00,
2013-04-27 14:34:00,73.9,20.0,29.12,SE,141,11.2,13.9,13,0.00,,---,0.00,VWS V14.01,2013-04-27 18:34:00,
2013-04-27 14:39:00,73.2,19.5,29.12,South,182,4.9,4.9,13,0.00,,---,0.00,VWS V14.01,2013-04-27 18:39:00,
2013-04-27 14:48:00,71.1,19.5,29.12,SE,137,6.7,11.6,14,0.00,,---,0.00,VWS V14.01,2013-04-27 18:48:00,
2013-04-27 14:53:00,70.7,19.2,29.12,South,176,6.9,14.3,14,0.00,,---,0.00,VWS V14.01,2013-04-27 18:53:00,
2013-04-27 14:58:00,71.1,19.5,29.12,South,176,8.7,17.2,14,0.00,,---,0.00,VWS V14.01,2013-04-27 18:58:00,
2013-04-27 15:03:00,72.0,20.2,29.12,SE,141,9.2,11.6,14,0.00,,---,0.00,VWS V14.01,2013-04-27 19:03:00,
2013-04-27 15:08:00,71.2,19.6,29.12,ESE,115,6.3,12.1,14,0.00,,---,0.00,VWS V14.01,2013-04-27 19:08:00,
2013-04-27 15:15:00,72.9,19.2,29.12,SSW,198,0.0,8.3,13,0.00,,---,0.00,VWS V14.01,2013-04-27 19:15:00,
2013-04-27 15:20:00,71.1,19.5,29.12,SSE,164,3.6,12.5,14,0.00,,---,0.00,VWS V14.01,2013-04-27 19:20:00,
2013-04-27 15:25:00,71.4,19.8,29.12,ESE,115,6.7,6.9,14,0.00,,---,0.00,VWS V14.01,2013-04-27 19:25:00,
2013-04-27 15:30:00,71.2,19.6,29.12,SE,135,5.4,7.8,14,0.00,,---,0.00,VWS V14.01,2013-04-27 19:30:00,
2013-04-27 15:35:00,70.3,18.9,29.12,ESE,121,10.5,12.1,14,0.00,,---,0.00,VWS V14.01,2013-04-27 19:35:00,
2013-04-27 15:41:00,70.5,19.1,29.12,SSE,165,8.3,9.2,14,0.00,,---,0.00,VWS V14.01,2013-04-27 19:41:00,
2013-04-27 15:46:00,71.6,19.9,29.12,SE,139,4.5,6.7,14,0.00,,---,0.00,VWS V14.01,2013-04-27 19:46:00,
2013-04-27 15:51:00,72.0,20.2,29.12,SE,142,9.2,11.2,14,0.00,,---,0.00,VWS V14.01,2013-04-27 19:51:00,
2013-04-27 15:57:00,70.3,18.9,29.12,SE,141,4.0,10.1,14,0.00,,---,0.00,VWS V14.01,2013-04-27 19:57:00,
2013-04-27 16:02:00,70.7,19.2,29.09,SSE,161,6.3,6.3,14,0.00,,---,0.00,VWS V14.01,2013-04-27 20:02:00,
2013-04-27 16:08:00,71.2,19.6,29.09,SE,146,5.4,8.3,14,0.00,,---,0.00,VWS V14.01,2013-04-27 20:08:00,
2013-04-27 16:13:00,69.4,18.2,29.09,SE,143,11.0,11.0,14,0.00,,---,0.00,VWS V14.01,2013-04-27 20:13:00,
2013-04-27 16:18:00,69.3,18.1,29.09,SSE,165,3.6,8.3,14,0.00,,---,0.00,VWS V14.01,2013-04-27 20:18:00,
2013-04-27 16:23:00,69.8,18.5,29.09,SSE,167,8.3,8.3,14,0.00,,---,0.00,VWS V14.01,2013-04-27 20:23:00,
2013-04-27 16:28:00,69.6,18.4,29.09,SE,129,2.7,6.7,14,0.00,,---,0.00,VWS V14.01,2013-04-27 20:28:00,
2013-04-27 16:34:00,70.0,18.6,29.09,SW,215,6.7,7.4,14,0.00,,---,0.00,VWS V14.01,2013-04-27 20:34:00,
2013-04-27 16:39:00,70.9,19.4,29.09,SSW,213,6.3,7.4,14,0.00,,---,0.00,VWS V14.01,2013-04-27 20:39:00,
2013-04-27 16:44:00,69.8,18.5,29.09,SE,132,7.4,7.4,14,0.00,,---,0.00,VWS V14.01,2013-04-27 20:44:00,
2013-04-27 16:49:00,69.3,18.1,29.09,SSW,197,2.7,6.9,14,0.00,,---,0.00,VWS V14.01,2013-04-27 20:49:00,
2013-04-27 16:54:00,68.5,19.1,29.09,SW,220,6.7,13.9,15,0.00,,---,0.00,VWS V14.01,2013-04-27 20:54:00,
2013-04-27 16:59:00,68.7,19.2,29.06,South,188,5.4,11.0,15,0.00,,---,0.00,VWS V14.01,2013-04-27 20:59:00,
2013-04-27 17:04:00,68.7,19.2,29.06,South,177,4.9,6.9,15,0.00,,---,0.00,VWS V14.01,2013-04-27 21:04:00,
2013-04-27 17:09:00,68.7,19.2,29.06,SW,224,4.0,6.9,15,0.00,,---,0.00,VWS V14.01,2013-04-27 21:09:00,
2013-04-27 17:14:00,68.5,19.1,29.06,SSW,208,5.4,8.7,15,0.00,,---,0.00,VWS V14.01,2013-04-27 21:14:00,
2013-04-27 17:19:00,68.0,18.7,29.06,SE,141,6.9,11.6,15,0.00,,---,0.00,VWS V14.01,2013-04-27 21:19:00,
2013-04-27 17:24:00,68.0,18.7,29.06,ENE,60,0.0,7.8,15,0.00,,---,0.00,VWS V14.01,2013-04-27 21:24:00,
2013-04-27 17:29:00,68.4,19.0,29.06,SSE,156,6.7,6.7,15,0.00,,---,0.00,VWS V14.01,2013-04-27 21:29:00,
2013-04-27 17:34:00,68.2,21.7,29.06,WSW,247,6.3,7.8,17,0.00,,---,0.00,VWS V14.01,2013-04-27 21:34:00,
2013-04-27 17:39:00,67.8,21.5,29.06,SSW,192,6.7,6.7,17,0.00,,---,0.00,VWS V14.01,2013-04-27 21:39:00,
2013-04-27 17:44:00,67.5,21.2,29.06,South,178,5.4,10.1,17,0.00,,---,0.00,VWS V14.01,2013-04-27 21:44:00,
2013-04-27 17:49:00,67.3,21.0,29.06,SSE,156,10.1,10.1,17,0.00,,---,0.00,VWS V14.01,2013-04-27 21:49:00,
2013-04-27 17:54:00,66.9,20.7,29.06,SW,226,6.7,6.7,17,0.00,,---,0.00,VWS V14.01,2013-04-27 21:54:00,
2013-04-27 17:59:00,66.7,20.6,29.06,South,173,6.3,6.7,17,0.00,,---,0.00,VWS V14.01,2013-04-27 21:59:00,
2013-04-27 18:04:00,66.4,24.1,29.06,SE,142,5.8,5.8,20,0.00,,---,0.00,VWS V14.01,2013-04-27 22:04:00,
2013-04-27 18:09:00,66.2,24.0,29.06,SW,221,3.1,5.4,20,0.00,,---,0.00,VWS V14.01,2013-04-27 22:09:00,
2013-04-27 18:14:00,65.7,23.5,29.06,SW,233,5.8,7.8,20,0.00,,---,0.00,VWS V14.01,2013-04-27 22:14:00,
2013-04-27 18:19:00,65.5,25.7,29.06,SSE,165,2.7,4.0,22,0.00,,---,0.00,VWS V14.01,2013-04-27 22:19:00,
2013-04-27 18:24:00,65.5,25.7,29.06,SSE,162,5.8,7.4,22,0.00,,---,0.00,VWS V14.01,2013-04-27 22:24:00,
2013-04-27 18:29:00,65.1,26.4,29.06,SW,220,4.9,6.9,23,0.00,,---,0.00,VWS V14.01,2013-04-27 22:29:00,
2013-04-27 18:34:00,64.8,26.1,29.06,South,171,4.9,6.9,23,0.00,,---,0.00,VWS V14.01,2013-04-27 22:34:00,
2013-04-27 18:39:00,64.6,26.0,29.06,South,179,3.6,4.5,23,0.00,,---,0.00,VWS V14.01,2013-04-27 22:39:00,
2013-04-27 18:44:00,64.2,25.7,29.06,South,180,4.5,5.4,23,0.00,,---,0.00,VWS V14.01,2013-04-27 22:44:00,
2013-04-27 18:49:00,64.0,25.5,29.06,SSE,161,6.7,6.9,23,0.00,,---,0.00,VWS V14.01,2013-04-27 22:49:00,
2013-04-27 18:54:00,63.7,26.2,29.06,SSW,201,0.0,6.7,24,0.00,,---,0.00,VWS V14.01,2013-04-27 22:54:00,
2013-04-27 18:59:00,63.5,26.1,29.06,SSE,147,0.0,6.9,24,0.00,,---,0.00,VWS V14.01,2013-04-27 22:59:00,
2013-04-27 19:04:00,63.5,27.1,29.06,SSW,202,0.0,3.1,25,0.00,,---,0.00,VWS V14.01,2013-04-27 23:04:00,
2013-04-27 19:09:00,63.5,27.1,29.06,SSE,165,3.6,4.9,25,0.00,,---,0.00,VWS V14.01,2013-04-27 23:09:00,
2013-04-27 19:14:00,63.5,28.0,29.06,SW,214,0.0,3.6,26,0.00,,---,0.00,VWS V14.01,2013-04-27 23:14:00,
2013-04-27 19:19:00,63.3,27.9,29.06,SSW,212,4.9,6.3,26,0.00,,---,0.00,VWS V14.01,2013-04-27 23:19:00,
2013-04-27 19:24:00,63.0,28.5,29.06,SE,144,3.1,4.9,27,0.00,,---,0.00,VWS V14.01,2013-04-27 23:24:00,
2013-04-27 19:29:00,62.8,29.2,29.06,SSW,209,3.1,5.4,28,0.00,,---,0.00,VWS V14.01,2013-04-27 23:29:00,
2013-04-27 19:34:00,62.6,29.9,29.06,SSW,204,5.4,5.8,29,0.00,,---,0.00,VWS V14.01,2013-04-27 23:34:00,
2013-04-27 19:39:00,62.2,31.2,29.06,SSW,192,4.0,4.5,31,0.00,,---,0.00,VWS V14.01,2013-04-27 23:39:00,
2013-04-27 19:44:00,62.1,32.6,29.03,South,170,0.0,6.3,33,0.00,,---,0.00,VWS V14.01,2013-04-27 23:44:00,
2013-04-27 19:49:00,61.9,33.2,29.03,SSE,167,4.5,4.5,34,0.00,,---,0.00,VWS V14.01,2013-04-27 23:49:00,
2013-04-27 19:55:00,61.7,33.1,29.03,ESE,121,7.4,7.4,34,0.00,,---,0.00,VWS V14.01,2013-04-27 23:55:00,
2013-04-27 20:00:00,61.3,33.5,29.03,South,179,5.4,8.3,35,0.00,,---,0.00,VWS V14.01,2013-04-28 00:00:00,
2013-04-27 20:05:00,61.2,34.0,29.03,South,175,3.1,4.5,36,0.00,,---,0.00,VWS V14.01,2013-04-28 00:05:00,
2013-04-27 20:10:00,61.0,34.5,29.03,SSE,147,4.5,7.8,37,0.00,,---,0.00,VWS V14.01,2013-04-28 00:10:00,
2013-04-27 20:15:00,60.8,35.1,29.03,SSE,160,3.1,4.0,38,0.00,,---,0.00,VWS V14.01,2013-04-28 00:15:00,
2013-04-27 20:20:00,60.8,35.1,29.03,SSE,157,0.0,3.6,38,0.00,,---,0.00,VWS V14.01,2013-04-28 00:20:00,
2013-04-27 20:25:00,60.6,36.2,29.03,SSE,168,4.5,5.4,40,0.00,,---,0.00,VWS V14.01,2013-04-28 00:25:00,
2013-04-27 20:30:00,60.4,36.7,29.03,SSW,193,0.0,0.0,41,0.00,,---,0.00,VWS V14.01,2013-04-28 00:30:00,
2013-04-27 20:35:00,60.4,37.3,29.03,SSW,211,0.0,0.0,42,0.00,,---,0.00,VWS V14.01,2013-04-28 00:35:00,
2013-04-27 20:40:00,60.3,37.7,29.03,South,182,4.9,6.7,43,0.00,,---,0.00,VWS V14.01,2013-04-28 00:40:00,
2013-04-27 20:45:00,59.9,38.0,29.03,SE,142,0.0,6.9,44,0.00,,---,0.00,VWS V14.01,2013-04-28 00:45:00,
2013-04-27 20:50:00,59.7,38.4,29.03,SSE,154,2.7,7.8,45,0.00,,---,0.00,VWS V14.01,2013-04-28 00:50:00,
2013-04-27 20:55:00,59.4,38.6,29.03,SE,127,5.4,6.7,46,0.00,,---,0.00,VWS V14.01,2013-04-28 00:55:00,
2013-04-27 21:00:00,59.2,38.4,29.03,SSE,153,4.5,8.3,46,0.00,,---,0.00,VWS V14.01,2013-04-28 01:00:00,
2013-04-27 21:05:00,59.0,38.8,29.03,SE,146,4.0,5.8,47,0.00,,---,0.00,VWS V14.01,2013-04-28 01:05:00,
2013-04-27 21:10:00,58.8,39.2,29.03,SE,138,4.0,6.9,48,0.00,,---,0.00,VWS V14.01,2013-04-28 01:10:00,
2013-04-27 21:15:00,58.6,39.0,29.03,SE,135,7.4,8.3,48,0.00,,---,0.00,VWS V14.01,2013-04-28 01:15:00,
2013-04-27 21:20:00,58.6,39.5,29.03,SE,146,5.4,5.4,49,0.00,,---,0.00,VWS V14.01,2013-04-28 01:20:00,
2013-04-27 21:25:00,58.5,39.9,29.03,South,188,4.9,7.8,50,0.00,,---,0.00,VWS V14.01,2013-04-28 01:25:00,
2013-04-27 21:30:00,58.5,39.9,29.03,South,180,0.0,4.0,50,0.00,,---,0.00,VWS V14.01,2013-04-28 01:30:00,
2013-04-27 21:35:00,58.3,40.2,29.03,SE,135,0.0,7.4,51,0.00,,---,0.00,VWS V14.01,2013-04-28 01:35:00,
2013-04-27 21:40:00,58.3,40.2,29.03,SSE,152,6.3,10.5,51,0.00,,---,0.00,VWS V14.01,2013-04-28 01:40:00,
2013-04-27 21:45:00,58.3,40.2,29.03,SE,129,8.3,8.7,51,0.00,,---,0.00,VWS V14.01,2013-04-28 01:45:00,
2013-04-27 21:50:00,58.3,40.2,29.03,SE,141,5.8,7.8,51,0.00,,---,0.00,VWS V14.01,2013-04-28 01:50:00,
2013-04-27 21:55:00,58.3,40.2,29.03,SE,144,4.9,8.7,51,0.00,,---,0.00,VWS V14.01,2013-04-28 01:55:00,
2013-04-27 22:00:00,58.1,40.1,29.03,SE,139,5.8,9.2,51,0.00,,---,0.00,VWS V14.01,2013-04-28 02:00:00,
2013-04-27 22:05:00,58.1,40.6,29.03,SE,143,4.9,6.7,52,0.00,,---,0.00,VWS V14.01,2013-04-28 02:05:00,
2013-04-27 22:10:00,57.9,40.9,29.03,ESE,123,4.9,9.6,53,0.00,,---,0.00,VWS V14.01,2013-04-28 02:10:00,
2013-04-27 22:15:00,57.9,40.9,29.00,SE,133,5.8,6.3,53,0.00,,---,0.00,VWS V14.01,2013-04-28 02:15:00,
2013-04-27 22:20:00,57.9,41.4,29.00,SE,138,4.9,5.8,54,0.00,,---,0.00,VWS V14.01,2013-04-28 02:20:00,
2013-04-27 22:25:00,57.9,41.4,29.00,SE,128,3.6,4.0,54,0.00,,---,0.00,VWS V14.01,2013-04-28 02:25:00,
2013-04-27 22:30:00,57.9,41.9,29.00,East,96,5.4,6.9,55,0.00,,---,0.00,VWS V14.01,2013-04-28 02:30:00,
2013-04-27 22:35:00,57.9,41.9,29.00,SE,144,6.9,6.9,55,0.00,,---,0.00,VWS V14.01,2013-04-28 02:35:00,
2013-04-27 22:40:00,57.7,42.6,29.00,SE,133,5.8,8.7,57,0.00,,---,0.00,VWS V14.01,2013-04-28 02:40:00,
2013-04-27 22:45:00,57.4,44.5,29.00,SSE,153,4.9,5.8,62,0.00,,---,0.00,VWS V14.01,2013-04-28 02:45:00,
2013-04-27 22:50:00,56.8,44.8,29.00,SE,142,4.5,5.4,64,0.00,,---,0.00,VWS V14.01,2013-04-28 02:50:00,
2013-04-27 22:55:00,56.7,45.8,29.00,SE,146,2.7,4.5,67,0.00,,---,0.00,VWS V14.01,2013-04-28 02:55:00,
2013-04-27 23:00:00,56.3,46.7,29.00,ESE,118,5.4,6.7,70,0.00,,---,0.00,VWS V14.01,2013-04-28 03:00:00,
2013-04-27 23:05:00,56.1,47.6,29.00,SE,139,4.0,4.0,73,0.00,,---,0.00,VWS V14.01,2013-04-28 03:05:00,
2013-04-27 23:10:00,56.1,48.0,29.00,East,100,0.0,4.0,74,0.00,,---,0.00,VWS V14.01,2013-04-28 03:10:00,
2013-04-27 23:15:00,55.9,48.1,29.00,ESE,117,0.0,4.5,75,0.00,,---,0.00,VWS V14.01,2013-04-28 03:15:00,
2013-04-27 23:20:00,55.9,48.5,29.00,ESE,117,4.0,4.5,76,0.00,,---,0.00,VWS V14.01,2013-04-28 03:20:00,
2013-04-27 23:25:00,55.8,48.3,29.00,ESE,113,3.6,5.8,76,0.00,,---,0.00,VWS V14.01,2013-04-28 03:25:00,
2013-04-27 23:30:00,55.8,48.3,29.00,ESE,108,0.0,4.9,76,0.00,,---,0.00,VWS V14.01,2013-04-28 03:30:00,
2013-04-27 23:35:00,55.6,48.5,29.00,ESE,108,4.5,6.3,77,0.00,,---,0.00,VWS V14.01,2013-04-28 03:35:00,
2013-04-27 23:40:00,55.4,48.3,29.00,ESE,118,2.7,4.9,77,0.00,,---,0.00,VWS V14.01,2013-04-28 03:40:00,
2013-04-27 23:45:00,55.4,48.3,29.00,East,94,4.5,6.3,77,0.00,,---,0.00,VWS V14.01,2013-04-28 03:45:00,
2013-04-27 23:50:00,55.4,48.3,29.00,East,101,5.8,7.4,77,0.00,,---,0.00,VWS V14.01,2013-04-28 03:50:00,
2013-04-27 23:55:00,55.4,48.3,29.00,ESE,123,4.0,4.9,77,0.00,,---,0.00,VWS V14.01,2013-04-28 03:55:00,
2013-04-27 23:59:00,58.3,57.4,28.82,West,273,0.0,5.4,97,0.00,,---,0.43,VWS V14.01,2013-04-28 03:59:00,